When you browse on this site, cookies collect data to enhance your experience and personalize the content and advertising you see.
Visit our Privacy Policy to learn more. By continuing to use the site, you agree to this use of cookies and data.
  • In United Kingdom
  • List of Countries
  • For 7 days
  • Water Temperature
  • Weather Map
  • Weather Widgets
  • user-avatar
    Login

    Hourly Weather Macapa

    Today, 22 February, Saturday

    Time Temperature Precipitation Wind Pressure Humidity
    00:00 +26°C° 0.7 mm 1 mps 758 mmHg 96%
    01:00 +26°C° 0.2 mm 1 mps 758 mmHg 96%
    02:00 +26°C° 0.2 mm 1 mps 758 mmHg 96%
    03:00 +26°C° 0.2 mm 2 mps 758 mmHg 96%
    04:00 +25°C° 0.1 mm 1 mps 758 mmHg 97%
    05:00 +25°C° 0.1 mm 1 mps 758 mmHg 97%
    06:00 +25°C° 0.1 mm 1 mps 758 mmHg 97%
    07:00 +26°C° 0 mm 1 mps 758 mmHg 95%
    08:00 +27°C° 0 mm 1 mps 759 mmHg 93%
    09:00 +27°C° 0 mm 1 mps 760 mmHg 92%
    10:00 +28°C° 0.3 mm 1 mps 759 mmHg 88%
    11:00 +29°C° 0.3 mm 2 mps 759 mmHg 85%
    12:00 +30°C° 0.3 mm 2 mps 758 mmHg 82%
    13:00 +30°C° 0.8 mm 2 mps 758 mmHg 82%
    14:00 +30°C° 0.8 mm 3 mps 757 mmHg 82%
    15:00 +30°C° 0.8 mm 3 mps 757 mmHg 82%
    16:00 +29°C° 0.3 mm 3 mps 757 mmHg 84%
    17:00 +29°C° 0.3 mm 3 mps 757 mmHg 86%
    18:00 +28°C° 0.3 mm 3 mps 757 mmHg 87%
    19:00 +28°C° 0 mm 3 mps 757 mmHg 89%
    20:00 +27°C° 0 mm 3 mps 758 mmHg 91%
    21:00 +27°C° 0 mm 2 mps 758 mmHg 92%
    22:00 +27°C° 0 mm 2 mps 758 mmHg 93%
    23:00 +27°C° 0 mm 2 mps 759 mmHg 94%

    Tomorrow, 23 February, Sunday

    Time Temperature Precipitation Wind Pressure Humidity
    00:00 +26°C° 0 mm 2 mps 759 mmHg 94%
    01:00 +26°C° 0 mm 2 mps 758 mmHg 95%
    02:00 +26°C° 0 mm 1 mps 758 mmHg 95%
    03:00 +26°C° 0 mm 1 mps 757 mmHg 96%
    04:00 +26°C° 0 mm 1 mps 757 mmHg 96%
    05:00 +26°C° 0 mm 1 mps 758 mmHg 96%
    06:00 +26°C° 0 mm 1 mps 758 mmHg 97%
    07:00 +27°C° 0.5 mm 1 mps 758 mmHg 93%
    08:00 +28°C° 0.5 mm 1 mps 759 mmHg 90%
    09:00 +29°C° 0.5 mm 1 mps 759 mmHg 86%
    10:00 +29°C° 1.6 mm 1 mps 759 mmHg 84%
    11:00 +30°C° 1.6 mm 1 mps 759 mmHg 83%
    12:00 +31°C° 1.6 mm 1 mps 759 mmHg 81%
    13:00 +30°C° 1.6 mm 2 mps 758 mmHg 81%
    14:00 +30°C° 1.6 mm 2 mps 758 mmHg 82%
    15:00 +30°C° 1.6 mm 3 mps 757 mmHg 82%
    16:00 +30°C° 1.2 mm 3 mps 757 mmHg 85%
    17:00 +29°C° 1.2 mm 3 mps 757 mmHg 88%
    18:00 +28°C° 1.2 mm 3 mps 757 mmHg 90%
    19:00 +28°C° 0.1 mm 3 mps 757 mmHg 92%
    20:00 +27°C° 0.1 mm 3 mps 758 mmHg 93%
    21:00 +27°C° 0.1 mm 3 mps 758 mmHg 94%
    22:00 +27°C° 0 mm 3 mps 758 mmHg 94%
    23:00 +27°C° 0 mm 3 mps 759 mmHg 95%

    Day after tomorrow, 24 February, Monday

    Time Temperature Precipitation Wind Pressure Humidity
    00:00 +26°C° 0 mm 3 mps 759 mmHg 95%
    01:00 +26°C° 0 mm 2 mps 758 mmHg 95%
    02:00 +26°C° 0 mm 2 mps 758 mmHg 96%
    03:00 +26°C° 0 mm 2 mps 757 mmHg 96%
    04:00 +26°C° 0 mm 2 mps 757 mmHg 96%
    05:00 +26°C° 0 mm 2 mps 757 mmHg 96%
    06:00 +26°C° 0 mm 3 mps 757 mmHg 96%
    07:00 +26°C° 0.1 mm 3 mps 758 mmHg 94%
    08:00 +27°C° 0.1 mm 3 mps 758 mmHg 91%
    09:00 +28°C° 0.1 mm 3 mps 759 mmHg 89%
    10:00 +29°C° 0.4 mm 3 mps 759 mmHg 85%
    11:00 +30°C° 0.4 mm 3 mps 758 mmHg 81%
    12:00 +31°C° 0.4 mm 3 mps 758 mmHg 77%
    13:00 +31°C° 1 mm 3 mps 757 mmHg 77%
    14:00 +32°C° 1 mm 4 mps 757 mmHg 78%
    15:00 +32°C° 1 mm 4 mps 756 mmHg 78%
    16:00 +30°C° 0.5 mm 4 mps 756 mmHg 81%
    17:00 +30°C° 0.5 mm 4 mps 756 mmHg 84%
    18:00 +29°C° 0.5 mm 4 mps 756 mmHg 87%
    19:00 +28°C° 0 mm 3 mps 756 mmHg 89%
    20:00 +28°C° 0 mm 3 mps 757 mmHg 91%
    21:00 +27°C° 0 mm 3 mps 758 mmHg 92%
    22:00 +27°C° 0 mm 3 mps 758 mmHg 93%
    23:00 +26°C° 0 mm 3 mps 758 mmHg 93%

    25 February, Tuesday

    Time Temperature Precipitation Wind Pressure Humidity
    00:00 +26°C° 0 mm 3 mps 758 mmHg 94%
    01:00 +26°C° 0 mm 3 mps 758 mmHg 94%
    02:00 +26°C° 0 mm 3 mps 757 mmHg 94%
    03:00 +26°C° 0 mm 3 mps 757 mmHg 95%
    04:00 +26°C° 0 mm 3 mps 757 mmHg 95%
    05:00 +26°C° 0 mm 2 mps 757 mmHg 95%
    06:00 +26°C° 0 mm 2 mps 757 mmHg 95%
    07:00 +26°C° 0 mm 2 mps 758 mmHg 93%
    08:00 +27°C° 0 mm 2 mps 758 mmHg 90%
    09:00 +27°C° 0 mm 2 mps 759 mmHg 88%
    10:00 +29°C° 0.3 mm 3 mps 758 mmHg 83%
    11:00 +30°C° 0.3 mm 3 mps 758 mmHg 79%
    12:00 +31°C° 0.3 mm 3 mps 758 mmHg 75%
    13:00 +31°C° 1.4 mm 3 mps 757 mmHg 77%
    14:00 +31°C° 1.4 mm 3 mps 756 mmHg 79%
    15:00 +30°C° 1.4 mm 3 mps 756 mmHg 81%
    16:00 +30°C° 1 mm 3 mps 755 mmHg 84%
    17:00 +29°C° 1 mm 3 mps 755 mmHg 86%
    18:00 +28°C° 1 mm 3 mps 755 mmHg 89%
    19:00 +28°C° 0.5 mm 3 mps 756 mmHg 90%
    20:00 +27°C° 0.5 mm 3 mps 757 mmHg 91%
    21:00 +27°C° 0.5 mm 3 mps 757 mmHg 92%
    22:00 +26°C° 0 mm 3 mps 758 mmHg 93%
    23:00 +26°C° 0 mm 3 mps 758 mmHg 93%

    26 February, Wednesday

    Time Temperature Precipitation Wind Pressure Humidity
    00:00 +26°C° 0 mm 3 mps 758 mmHg 93%
    01:00 +26°C° 0 mm 3 mps 757 mmHg 93%
    02:00 +25°C° 0 mm 3 mps 757 mmHg 93%
    03:00 +25°C° 0 mm 3 mps 756 mmHg 93%
    04:00 +25°C° 0 mm 3 mps 756 mmHg 93%
    05:00 +25°C° 0 mm 3 mps 756 mmHg 94%
    06:00 +25°C° 0 mm 2 mps 756 mmHg 94%
    07:00 +26°C° 0 mm 2 mps 757 mmHg 90%
    08:00 +26°C° 0 mm 3 mps 758 mmHg 87%
    09:00 +27°C° 0 mm 3 mps 758 mmHg 83%
    10:00 +28°C° 0 mm 3 mps 758 mmHg 81%
    11:00 +28°C° 0 mm 2 mps 758 mmHg 79%
    12:00 +29°C° 0 mm 2 mps 758 mmHg 77%
    13:00 +29°C° 0 mm 2 mps 757 mmHg 75%
    14:00 +30°C° 0 mm 2 mps 757 mmHg 73%
    15:00 +30°C° 0 mm 2 mps 756 mmHg 71%
    16:00 +30°C° 0 mm 2 mps 756 mmHg 74%
    17:00 +29°C° 0 mm 2 mps 756 mmHg 77%
    18:00 +29°C° 0 mm 3 mps 756 mmHg 80%
    19:00 +28°C° 0 mm 3 mps 756 mmHg 82%
    20:00 +28°C° 0 mm 3 mps 757 mmHg 84%
    21:00 +27°C° 0 mm 3 mps 757 mmHg 86%
    22:00 +27°C° 0 mm 3 mps 758 mmHg 85%
    23:00 +26°C° 0 mm 3 mps 758 mmHg 85%

    27 February, Thursday

    Time Temperature Precipitation Wind Pressure Humidity
    00:00 +26°C° 0 mm 3 mps 758 mmHg 84%
    01:00 +26°C° 0 mm 3 mps 757 mmHg 85%
    02:00 +25°C° 0 mm 3 mps 757 mmHg 86%
    03:00 +25°C° 0 mm 3 mps 756 mmHg 88%
    04:00 +25°C° 0 mm 2 mps 756 mmHg 88%
    05:00 +25°C° 0 mm 2 mps 757 mmHg 89%
    06:00 +25°C° 0 mm 2 mps 757 mmHg 89%
    07:00 +26°C° 0 mm 2 mps 757 mmHg 86%
    08:00 +27°C° 0 mm 3 mps 758 mmHg 82%
    09:00 +28°C° 0 mm 3 mps 759 mmHg 78%
    10:00 +29°C° 0 mm 3 mps 758 mmHg 73%
    11:00 +31°C° 0 mm 2 mps 758 mmHg 68%
    12:00 +32°C° 0 mm 2 mps 758 mmHg 63%
    13:00 +32°C° 0.7 mm 2 mps 757 mmHg 67%
    14:00 +32°C° 0.7 mm 2 mps 756 mmHg 71%
    15:00 +31°C° 0.7 mm 2 mps 756 mmHg 75%
    16:00 +30°C° 1.4 mm 2 mps 755 mmHg 79%
    17:00 +29°C° 1.4 mm 3 mps 755 mmHg 84%
    18:00 +28°C° 1.4 mm 3 mps 755 mmHg 89%
    19:00 +28°C° 0.7 mm 3 mps 756 mmHg 91%
    20:00 +27°C° 0.7 mm 3 mps 757 mmHg 92%
    21:00 +27°C° 0.7 mm 3 mps 757 mmHg 94%
    22:00 +26°C° 0 mm 3 mps 758 mmHg 94%
    23:00 +26°C° 0 mm 3 mps 758 mmHg 94%
    Show more